Flag for Canada Weather past 2 weeks in Creighton, Saskatchewan, Canada

Now
61 °F

Passing clouds.


Feels Like: 61 °F
Forecast: 59 / 75 °F
Wind: No wind

Location: The Pas

Current Time: Aug 30, 2015 at 5:08:36 AM

Latest Report: Aug 30, 2015 at 4:00 AM


Visibility: 15 mi

Pressure: 29.68 "Hg

Humidity: 100%

Dew point: 61 °F

Location of CreightonLocation

Historic Weather in Creighton — Graph

°F

Creighton temperature yesterday

Maximum temperature yesterday: 81 °F (at 4:00 PM)
Minimum temperature yesterday: 57 °F (at 6:00 AM)
Average temperature yesterday: 68 °F

Past Weeks' High & Low Weather Summary

 TemperatureHumidityPressure
High82 °F (Aug 28, 5:00 PM)100% (Aug 17, 5:00 AM)30.16 "Hg (Aug 17, 5:00 AM)
Low45 °F (Aug 17, 3:00 AM)31% (Aug 16, 4:00 PM)29.55 "Hg (Aug 29, 4:00 PM)
Average61 °F75%29.88 "Hg
* Reported Aug 15 4:00 AM — Aug 30 4:00 AM, Creighton, Weather by CustomWeather, © 2015

Note: Actual official high and low records may vary slightly from our data, if they occured in-between our weather recording intervals... More about our weather records

Advertising

Creighton weather history for previous 24 hours

 ConditionsComfort  
Time TempWeatherWind HumidityBarometerVisibility
4:00 AM
Sun, Aug 30
61 °FPassing clouds.No wind100%29.68 "Hg15 mi
3:00 AM63 °FOvercast.5 mph94%29.66 "Hg15 mi
2:00 AM64 °FPassing clouds.2 mph94%29.67 "Hg12 mi
1:00 AM66 °FOvercast.5 mph88%29.67 "Hg15 mi
12:00 AM66 °FPassing clouds.8 mph88%29.65 "Hg15 mi
11:00 PM
Sat, Aug 29
68 °FPassing clouds.9 mph83%29.64 "Hg12 mi
10:00 PM70 °FPartly cloudy.7 mph78%29.63 "Hg12 mi
9:00 PM72 °FOvercast.9 mph73%29.61 "Hg10 mi
8:00 PM73 °FScattered clouds.9 mph69%29.58 "Hg8 mi
7:00 PM77 °FScattered clouds.8 mph57%29.57 "Hg8 mi
6:00 PM79 °FScattered clouds.16 mph51%29.57 "Hg9 mi
5:00 PM81 °FPartly sunny.13 mph45%29.56 "Hg9 mi
4:00 PM81 °FMostly cloudy.14 mph48%29.55 "Hg9 mi
3:00 PM79 °FPartly sunny.10 mph51%29.56 "Hg9 mi
2:00 PM77 °FScattered clouds.8 mph54%29.58 "Hg9 mi
1:00 PM73 °FPartly sunny.14 mph69%29.60 "Hg12 mi
12:00 PM70 °FMostly cloudy.14 mph78%29.61 "Hg12 mi
11:00 AM66 °FMostly cloudy.14 mph83%29.64 "Hg15 mi
10:00 AM63 °FMostly cloudy.10 mph88%29.67 "Hg15 mi
9:00 AM61 °FMostly cloudy.9 mph88%29.69 "Hg15 mi
8:45 AM61 °FMore clouds than sun.10 mph83%29.69 "Hg15 mi
8:00 AM63 °FOvercast.7 mph77%29.70 "Hg11 mi
7:00 AM59 °FMostly cloudy.8 mph88%29.71 "Hg12 mi
6:00 AM57 °FPassing clouds.12 mph88%29.72 "Hg15 mi
5:00 AM61 °FPassing clouds.8 mph83%29.74 "Hg15 mi
Weather by CustomWeather, © 2015

See weather overviewHow to use our weather pages